SCP
0 0 0 0 0 0 0 0 0 0 0 0 0 0 0 0 0 0 0 0 0 0 0 0 0 0 0 0 0 0 0 0 0 0 0 0 0 0 0 0 0 0 0 0
0 0 0 0 0 0 0 0 0 0 0 0 0 0 0 0 0 0 0 0 0 0 0 0 0 0 0 0 0 0 0 0 0 0 0 0 0 0 0 0 0 0 0 0
0 0 0 0 0 0 0 0 0 0 0 0 0 -0 0 0 0 0 0 0 0 0 0 0 0 0 0 0 0 0 0 0 0 0 0 0 0 0 0 0 0 0 0 0
0 0 0 0 0 0 0 0 0 0 0 0 0 0 0 0 0 0 0 0 0 0 0 0 0 0 0 0 0 0 0 0 0 0 0 0 0 0 0 0 0 0 0 0
0 0 0 0 0 0 0 0 0 0 0 0 0 0 0 0 0 0 0 0 0 0 0 0 0 0 0 0 0 0 0 0 0 0 0 0 0 0 0 0 0 0 0 0
0 0 0 0 0 0 0 0 0 0 0 0 0 0 0 0 0 0 0 0 0 0 0 0 0 0 0 0 0 0 0 0 0 0 0 0 0 0 0 0 0 0 0 0
0 0 0 0 0 0 0 0 0 0 0 0 0 0 0 0 0 0 0 0 0 0 0 0 0 0 0 0 0 0 0 0 0 0 0 0 0 0 0 0 0 0 0 0
0 0 0 0 0 0 0 0 0 0 0 0 0 0 0 0 0 0 0 0 0 0 0 0 0 0 0 0 0 0 0 0 0 0 0 0 0 0 0 0 0 0 0 0
0 0 0 0 0 0 0 0 0 0 0 0 0 0 0 0 0 0 0 0 0 0 0 0 0 0 0 0 0 0 0 0 0 0 0 0 0 0 0 0 0 0 0 0
0 0 0 0 0 0 0 0 0 0 0 0 0 0 0 0 0 0 0 0 0 0 0 0 0 0 0 0 0 0 0 0 0 0 0 0 0 0 0 0 0 0 0 0
0 0 0 0 0 0 0 0 0 0 0 0 0 0 0 0 0 0 0 0 0 0 0 0 0 0 0 0 0 0 0 0 0 0 0 0 0 0 0 0 0 0 0 0
0 0 0 0 0 0 0 0 0 0 0 0 0 0 0 0 0 0 0 0 -0 -0 0 0 0 0 0 0 0 0 0 0 0 0 0 0 0 0 0 0 0 0 0 0
0 0 0 0 0 0 0 0 0 0 0 0 0 0 0 0 0 0 0 0 0 0 0 0 0 0 0 0 0 0 0 0 0 0 0 0 0 0 0 0 0 0 0 0
0 0 0 0 0 0 0 0 0 0 0 0 0 0 0 0 0 0 0 0 0 0 0 0 0 0 0 0 0 0 0 0 0 0 0 0 0 0 0 0 0 0 0 0
0 0 0 0 0 0 0 0 0 0 0 0 0 0 0 0 0 0 0 0 0 0 0 0 0 0 0 0 0 0 0 0 0 0 0 0 0 0 0 0 0 0 0 0
0 0 0 0 0 0 0 0 0 0 0 0 0 0 0 0 0 0 0 0 0 0 0 0 0 0 0 0 0 0 0 0 0 0 0 0 0 0 0 0 0 0 0 0
0 0 0 0 0 0 0 0 0 0 0 0 0 0 0 0 0 0 0 0 0 0 0 0 0 0 0 0 0 0 0 0 0 0 0 0 0 0 0 0 0 0 0 0
0 0 0 0 0 0 0 0 0 0 0 0 0 0 0 0 0 0 0 0 0 0 0 0 0 0 0 0 0 0 0 0 0 0 0 0 0 0 0 0 0 0 0 0
0 0 0 0 0 0 0 0 0 0 0 0 0 0 0 0 0 0 0 0 0 0 0 0 0 0 0 0 0 0 0 0 0 0 0 0 0 0 0 0 0 0 0 0
0 0 0 0 0 0 0 0 0 0 0 0 0 0 0 0 0 0 0 0 0 0 0 0 0 0 0 0 0 0 0 0 0 0 0 0 0 0 0 0 0 0 0 0
0 0 0 0 0 0 0 0 0 0 0 0 0 0 0 0 0 0 0 0 0 0 0 0 0 0 0 0 0 0 0 0 0 0 0 0 0 0 0 0 0 0 0 0
0 0 0 0 0 0 0 0 0 0 0 0 0 0 0 0 0 0 0 0 0 0 0 0 0 0 0 0 0 0 0 0 0 0 0 0 0 0 0 0 0 0 0 0
0 0 0 0 0 0 0 0 0 0 0 0 0 0 0 0 0 0 0 0 0 0 0 0 0 0 0 0 0 0 0 0 0 0 0 0 0 0 0 0 0 0 0 0
0 0 0 0 0 0 0 0 0 0 0 0 0 0 0 0 0 0 0 0 0 0 0 0 0 0 0 0 0 0 0 0 0 0 0 0 0 0 0 0 0 0 0 0
0 0 0 0 0 0 0 0 0 0 0 0 0 0 0 0 0 0 0 0 0 0 0 0 0 0 0 0 0 0 0 0 0 0 0 0 0 0 0 0 0 0 0 0
0 0 0 0 0 0 0 0 0 0 0 0 0 0 0 0 0 0 0 0 0 0 0 0 0 0 0 0 0 0 0 0 0 0 0 0 0 0 0 0 0 0 0 0
Wind_Speed_500mb
11 7 16 23 2 7 6 14 13 9 4 7 15 22 24 24 26 27 21 12 8 16 14 16 18 18 15 10 6 6 13 18 17 15 15 12 15 18 18 23 26 28 30 32
10 10 9 3 3 10 8 11 8 9 4 6 16 29 29 22 17 11 7 7 12 16 18 18 17 16 14 10 6 8 12 11 12 14 16 17 19 20 23 24 30 33 34 35
9 11 3 3 8 12 8 7 5 4 6 9 19 26 14 9 8 7 6 7 13 19 21 20 17 14 11 10 5 4 3 7 12 16 18 21 24 26 23 27 30 32 34 35
13 5 3 6 8 11 8 7 6 5 7 6 6 12 14 17 11 9 13 14 16 19 19 19 18 14 12 9 7 5 4 9 13 16 19 22 25 26 29 33 34 35 33 34
4 6 7 5 7 12 10 3 5 4 4 7 10 5 7 6 11 17 18 19 19 19 19 20 18 18 14 14 10 3 4 9 13 18 21 25 26 28 31 32 34 32 33 34
11 6 7 6 10 10 14 4 1 2 2 5 5 5 9 5 1 8 22 22 22 22 20 20 20 19 19 15 8 3 2 9 16 20 22 25 28 30 32 33 34 34 33 32
7 6 5 1 5 4 5 0 1 2 3 4 5 6 14 5 3 2 21 27 26 25 24 23 23 22 20 14 9 5 6 13 17 19 23 26 29 31 32 33 35 36 36 35
9 5 4 3 4 4 5 4 4 7 5 4 7 11 3 7 3 6 12 24 25 25 23 24 25 24 22 17 12 5 9 14 17 21 24 27 30 31 31 32 32 32 34 35
7 6 5 5 3 6 7 7 5 4 1 6 8 9 13 3 5 8 12 20 24 24 25 26 26 25 22 19 13 9 11 14 17 20 25 28 30 30 30 30 30 32 34 34
3 6 1 4 3 5 6 3 3 3 5 8 10 8 4 5 1 8 12 22 25 27 29 29 28 26 23 21 15 12 11 13 16 21 24 28 30 31 30 30 30 31 32 33
3 4 7 2 10 1 5 5 4 6 5 7 11 4 3 8 0 5 13 21 28 32 31 29 26 22 19 18 17 13 12 12 16 22 26 28 30 30 31 30 30 31 32 32
6 6 4 4 5 4 7 6 12 6 7 2 6 11 5 7 8 5 6 7 19 25 28 28 27 27 24 20 18 15 11 10 14 20 25 28 31 32 31 31 33 34 33 32
2 4 4 7 6 6 11 18 13 4 3 13 10 3 8 13 12 9 15 26 25 21 25 29 32 34 29 24 21 18 12 11 16 22 27 29 31 32 33 33 34 33 33 32
5 5 14 9 5 6 9 17 23 20 9 14 25 27 18 11 11 27 27 20 17 21 26 31 35 36 32 28 23 19 16 16 19 24 27 30 32 33 34 33 32 30 30 30
5 8 5 17 17 13 17 21 29 32 37 18 30 29 26 28 22 14 21 18 22 25 26 31 35 35 33 29 24 23 20 19 22 24 29 32 34 35 35 33 32 32 32 33
4 3 3 9 3 13 25 30 33 38 39 37 42 44 19 16 19 22 20 22 24 25 23 21 27 30 30 28 23 21 21 23 26 29 33 36 36 37 37 37 37 37 38 40
5 4 2 8 3 15 24 25 36 24 22 19 27 20 17 12 13 12 16 22 27 31 31 22 14 21 24 24 20 18 18 27 32 34 37 39 39 42 43 42 42 43 44 44
7 9 4 10 12 11 6 4 9 19 8 11 21 13 7 11 1 9 18 25 29 33 32 26 16 14 18 21 22 28 33 36 37 38 40 40 42 44 44 47 50 50 49 48
16 13 7 8 13 26 25 6 2 8 12 5 5 4 11 17 7 14 21 35 35 34 33 31 25 20 22 24 26 36 39 41 39 38 39 39 42 46 47 49 50 49 49 51
14 15 12 6 9 11 10 9 2 1 11 13 8 7 15 23 8 6 46 42 34 32 32 34 34 32 32 28 28 39 39 31 35 36 37 44 48 48 48 47 49 52 56 61
7 10 24 21 14 16 11 10 2 9 5 10 5 9 15 13 20 39 37 32 28 30 32 35 32 30 29 30 38 40 41 46 40 44 46 46 46 49 51 54 56 57 61 64
12 9 10 11 11 18 4 9 9 9 12 5 9 16 22 24 27 28 27 29 33 34 35 33 35 34 37 37 42 45 40 39 37 39 44 48 49 50 51 56 58 58 59 62
9 18 9 13 4 11 13 21 15 8 1 12 16 16 15 17 21 26 32 35 37 38 38 37 35 35 34 33 32 37 45 43 42 46 52 51 54 57 58 55 58 63 64 63
19 16 9 12 10 10 12 5 2 9 13 11 6 10 14 19 22 27 30 34 39 40 41 40 40 41 43 41 41 40 41 42 45 49 54 54 52 56 57 59 59 58 60 61
8 7 13 21 4 6 7 15 12 10 9 8 9 11 14 17 23 29 34 39 43 48 49 48 49 52 54 52 52 51 52 51 56 62 64 57 55 58 60 61 62 63 67 65
15 23 18 8 13 8 11 11 15 12 12 13 14 16 18 22 28 33 38 47 52 52 54 57 57 57 61 61 63 64 67 66 67 66 63 59 59 61 61 60 66 75 76 77
Wind_Direction_500mb
169 192 187 187 27 32 123 206 211 114 105 289 253 271 271 259 250 266 262 264 233 184 177 166 170 179 187 202 216 280 320 328 342 355 3 358 346 346 341 334 337 338 336 334
172 157 57 80 158 116 135 178 160 121 131 287 290 279 269 269 258 263 241 204 170 168 164 164 166 177 173 188 222 295 318 340 0 6 359 352 345 341 333 331 338 333 330 326
166 91 125 208 137 140 66 298 96 6 302 238 294 266 201 192 198 175 177 147 161 167 163 159 159 159 174 197 235 297 34 20 8 1 356 354 350 346 339 321 330 329 328 328
74 78 118 129 93 331 174 43 68 8 328 298 342 293 208 172 190 206 182 174 158 157 159 159 160 153 175 192 166 131 43 6 5 2 354 346 339 333 330 330 333 334 332 329
75 99 81 96 17 330 72 64 52 19 324 322 170 253 246 107 219 211 198 181 171 168 169 165 167 181 187 173 159 140 20 12 360 350 346 343 339 336 335 334 334 333 332 330
89 80 28 62 60 50 130 166 105 127 286 237 82 240 276 196 68 176 188 183 178 174 171 170 182 182 181 174 167 136 30 351 346 347 347 348 346 343 341 339 338 336 337 334
127 53 89 22 144 148 237 212 157 273 199 284 176 242 265 153 153 235 190 187 186 184 181 181 182 181 184 185 183 186 334 339 340 346 348 349 349 347 344 342 340 338 338 337
160 205 176 30 336 332 171 271 273 260 253 23 176 236 249 111 226 199 215 193 189 190 189 188 187 193 196 199 203 260 316 327 338 346 351 352 350 349 348 346 345 345 344 343
161 131 131 50 326 310 139 216 24 298 191 260 226 245 165 16 185 202 197 191 198 200 200 200 201 203 209 213 230 271 312 330 339 348 353 353 352 352 350 349 348 346 345 344
79 117 42 94 297 77 312 35 191 197 263 253 218 263 286 31 247 201 202 211 211 211 210 208 209 210 215 225 243 275 308 324 339 351 354 351 349 348 345 344 343 344 344 345
331 279 108 213 199 242 151 214 238 301 278 287 304 98 95 182 150 228 215 215 220 223 220 218 218 218 221 229 248 273 294 324 346 350 347 345 342 339 336 332 331 331 332 334
31 327 161 57 87 333 300 278 245 249 168 272 298 281 117 58 33 357 317 287 259 244 237 232 227 223 224 228 241 258 281 315 331 337 338 336 334 332 328 323 322 323 324 325
63 207 207 184 179 197 232 204 228 201 312 238 269 241 128 119 105 69 325 313 301 254 246 238 231 227 226 226 230 249 263 287 316 329 330 329 325 320 316 313 314 316 317 319
322 273 260 278 36 112 196 206 211 205 201 238 229 266 245 262 314 332 338 307 290 281 268 251 237 230 228 226 227 241 254 281 308 319 323 322 318 315 312 310 310 311 313 315
301 282 308 296 284 252 264 237 213 214 225 241 266 276 295 327 338 343 323 333 323 314 295 261 243 234 228 226 227 235 252 282 304 315 320 318 314 311 308 306 307 308 310 310
181 261 331 278 275 259 257 254 250 242 247 258 271 281 329 15 334 331 349 351 350 344 327 288 250 241 235 232 231 237 266 287 305 313 316 312 308 306 304 303 303 303 305 308
230 253 276 263 334 306 270 252 237 231 242 255 256 275 2 1 17 40 33 21 15 6 1 347 286 252 245 244 245 256 269 285 299 304 307 306 304 304 304 304 302 302 303 303
225 232 282 289 299 249 74 1 310 220 238 276 254 302 4 355 112 90 43 17 1 356 354 352 332 282 263 259 261 271 281 291 294 297 300 300 298 297 298 299 300 303 303 303
222 225 252 254 249 296 275 155 135 207 207 230 162 90 11 345 246 199 18 354 343 338 334 330 321 298 277 270 273 276 284 289 289 294 295 292 293 297 299 297 298 300 300 300
215 247 244 174 260 265 96 133 81 198 256 138 124 54 12 352 302 327 341 337 336 335 334 324 311 296 293 292 280 288 291 286 286 284 279 284 292 294 295 296 295 297 297 297
175 210 223 235 254 273 102 134 88 233 58 135 58 2 343 322 304 307 318 323 328 331 332 326 317 308 302 292 295 295 294 296 290 283 288 294 296 296 294 293 293 296 296 296
204 208 205 222 245 262 93 139 227 85 91 57 330 308 296 302 311 318 321 321 322 320 318 313 307 305 302 299 297 297 293 295 292 290 293 297 298 298 295 297 300 299 299 298
244 226 300 221 255 98 63 100 103 99 356 296 283 307 314 318 318 316 315 315 314 314 312 311 306 303 300 295 289 288 295 294 293 296 302 301 298 297 297 294 295 297 299 294
256 242 246 272 162 186 135 123 154 308 274 298 310 312 309 308 314 317 318 318 317 315 313 311 307 302 299 295 290 286 290 293 292 289 294 291 285 284 285 287 286 283 280 282
290 170 243 268 70 105 229 247 259 247 246 270 284 291 301 309 312 313 311 310 307 305 304 304 302 298 293 291 287 289 289 291 291 293 295 285 281 283 286 285 286 286 291 287
213 238 253 262 150 208 288 213 225 232 243 259 266 279 288 298 303 309 307 305 303 302 300 301 301 298 293 292 289 287 288 288 285 284 283 285 287 285 284 282 286 296 296 297
Wind_Speed_850mb
11 7 16 23 2 7 6 14 13 9 4 7 15 22 24 24 26 27 21 12 8 16 14 16 18 18 15 10 6 6 13 18 17 15 15 12 15 18 18 23 26 28 30 32
10 10 9 3 3 10 8 11 8 9 4 6 16 29 29 22 17 11 7 7 12 16 18 18 17 16 14 10 6 8 12 11 12 14 16 17 19 20 23 24 30 33 34 35
9 11 3 3 8 12 8 7 5 4 6 9 19 26 14 9 8 7 6 7 13 19 21 20 17 14 11 10 5 4 3 7 12 16 18 21 24 26 23 27 30 32 34 35
13 5 3 6 8 11 8 7 6 5 7 6 6 12 14 17 11 9 13 14 16 19 19 19 18 14 12 9 7 5 4 9 13 16 19 22 25 26 29 33 34 35 33 34
4 6 7 5 7 12 10 3 5 4 4 7 10 5 7 6 11 17 18 19 19 19 19 20 18 18 14 14 10 3 4 9 13 18 21 25 26 28 31 32 34 32 33 34
11 6 7 6 10 10 14 4 1 2 2 5 5 5 9 5 1 8 22 22 22 22 20 20 20 19 19 15 8 3 2 9 16 20 22 25 28 30 32 33 34 34 33 32
7 6 5 1 5 4 5 0 1 2 3 4 5 6 14 5 3 2 21 27 26 25 24 23 23 22 20 14 9 5 6 13 17 19 23 26 29 31 32 33 35 36 36 35
9 5 4 3 4 4 5 4 4 7 5 4 7 11 3 7 3 6 12 24 25 25 23 24 25 24 22 17 12 5 9 14 17 21 24 27 30 31 31 32 32 32 34 35
7 6 5 5 3 6 7 7 5 4 1 6 8 9 13 3 5 8 12 20 24 24 25 26 26 25 22 19 13 9 11 14 17 20 25 28 30 30 30 30 30 32 34 34
3 6 1 4 3 5 6 3 3 3 5 8 10 8 4 5 1 8 12 22 25 27 29 29 28 26 23 21 15 12 11 13 16 21 24 28 30 31 30 30 30 31 32 33
3 4 7 2 10 1 5 5 4 6 5 7 11 4 3 8 0 5 13 21 28 32 31 29 26 22 19 18 17 13 12 12 16 22 26 28 30 30 31 30 30 31 32 32
6 6 4 4 5 4 7 6 12 6 7 2 6 11 5 7 8 5 6 7 19 25 28 28 27 27 24 20 18 15 11 10 14 20 25 28 31 32 31 31 33 34 33 32
2 4 4 7 6 6 11 18 13 4 3 13 10 3 8 13 12 9 15 26 25 21 25 29 32 34 29 24 21 18 12 11 16 22 27 29 31 32 33 33 34 33 33 32
5 5 14 9 5 6 9 17 23 20 9 14 25 27 18 11 11 27 27 20 17 21 26 31 35 36 32 28 23 19 16 16 19 24 27 30 32 33 34 33 32 30 30 30
5 8 5 17 17 13 17 21 29 32 37 18 30 29 26 28 22 14 21 18 22 25 26 31 35 35 33 29 24 23 20 19 22 24 29 32 34 35 35 33 32 32 32 33
4 3 3 9 3 13 25 30 33 38 39 37 42 44 19 16 19 22 20 22 24 25 23 21 27 30 30 28 23 21 21 23 26 29 33 36 36 37 37 37 37 37 38 40
5 4 2 8 3 15 24 25 36 24 22 19 27 20 17 12 13 12 16 22 27 31 31 22 14 21 24 24 20 18 18 27 32 34 37 39 39 42 43 42 42 43 44 44
7 9 4 10 12 11 6 4 9 19 8 11 21 13 7 11 1 9 18 25 29 33 32 26 16 14 18 21 22 28 33 36 37 38 40 40 42 44 44 47 50 50 49 48
16 13 7 8 13 26 25 6 2 8 12 5 5 4 11 17 7 14 21 35 35 34 33 31 25 20 22 24 26 36 39 41 39 38 39 39 42 46 47 49 50 49 49 51
14 15 12 6 9 11 10 9 2 1 11 13 8 7 15 23 8 6 46 42 34 32 32 34 34 32 32 28 28 39 39 31 35 36 37 44 48 48 48 47 49 52 56 61
7 10 24 21 14 16 11 10 2 9 5 10 5 9 15 13 20 39 37 32 28 30 32 35 32 30 29 30 38 40 41 46 40 44 46 46 46 49 51 54 56 57 61 64
12 9 10 11 11 18 4 9 9 9 12 5 9 16 22 24 27 28 27 29 33 34 35 33 35 34 37 37 42 45 40 39 37 39 44 48 49 50 51 56 58 58 59 62
9 18 9 13 4 11 13 21 15 8 1 12 16 16 15 17 21 26 32 35 37 38 38 37 35 35 34 33 32 37 45 43 42 46 52 51 54 57 58 55 58 63 64 63
19 16 9 12 10 10 12 5 2 9 13 11 6 10 14 19 22 27 30 34 39 40 41 40 40 41 43 41 41 40 41 42 45 49 54 54 52 56 57 59 59 58 60 61
8 7 13 21 4 6 7 15 12 10 9 8 9 11 14 17 23 29 34 39 43 48 49 48 49 52 54 52 52 51 52 51 56 62 64 57 55 58 60 61 62 63 67 65
15 23 18 8 13 8 11 11 15 12 12 13 14 16 18 22 28 33 38 47 52 52 54 57 57 57 61 61 63 64 67 66 67 66 63 59 59 61 61 60 66 75 76 77
Wind_Direction_850mb
169 192 187 187 27 32 123 206 211 114 105 289 253 271 271 259 250 266 262 264 233 184 177 166 170 179 187 202 216 280 320 328 342 355 3 358 346 346 341 334 337 338 336 334
172 157 57 80 158 116 135 178 160 121 131 287 290 279 269 269 258 263 241 204 170 168 164 164 166 177 173 188 222 295 318 340 0 6 359 352 345 341 333 331 338 333 330 326
166 91 125 208 137 140 66 298 96 6 302 238 294 266 201 192 198 175 177 147 161 167 163 159 159 159 174 197 235 297 34 20 8 1 356 354 350 346 339 321 330 329 328 328
74 78 118 129 93 331 174 43 68 8 328 298 342 293 208 172 190 206 182 174 158 157 159 159 160 153 175 192 166 131 43 6 5 2 354 346 339 333 330 330 333 334 332 329
75 99 81 96 17 330 72 64 52 19 324 322 170 253 246 107 219 211 198 181 171 168 169 165 167 181 187 173 159 140 20 12 360 350 346 343 339 336 335 334 334 333 332 330
89 80 28 62 60 50 130 166 105 127 286 237 82 240 276 196 68 176 188 183 178 174 171 170 182 182 181 174 167 136 30 351 346 347 347 348 346 343 341 339 338 336 337 334
127 53 89 22 144 148 237 212 157 273 199 284 176 242 265 153 153 235 190 187 186 184 181 181 182 181 184 185 183 186 334 339 340 346 348 349 349 347 344 342 340 338 338 337
160 205 176 30 336 332 171 271 273 260 253 23 176 236 249 111 226 199 215 193 189 190 189 188 187 193 196 199 203 260 316 327 338 346 351 352 350 349 348 346 345 345 344 343
161 131 131 50 326 310 139 216 24 298 191 260 226 245 165 16 185 202 197 191 198 200 200 200 201 203 209 213 230 271 312 330 339 348 353 353 352 352 350 349 348 346 345 344
79 117 42 94 297 77 312 35 191 197 263 253 218 263 286 31 247 201 202 211 211 211 210 208 209 210 215 225 243 275 308 324 339 351 354 351 349 348 345 344 343 344 344 345
331 279 108 213 199 242 151 214 238 301 278 287 304 98 95 182 150 228 215 215 220 223 220 218 218 218 221 229 248 273 294 324 346 350 347 345 342 339 336 332 331 331 332 334
31 327 161 57 87 333 300 278 245 249 168 272 298 281 117 58 33 357 317 287 259 244 237 232 227 223 224 228 241 258 281 315 331 337 338 336 334 332 328 323 322 323 324 325
63 207 207 184 179 197 232 204 228 201 312 238 269 241 128 119 105 69 325 313 301 254 246 238 231 227 226 226 230 249 263 287 316 329 330 329 325 320 316 313 314 316 317 319
322 273 260 278 36 112 196 206 211 205 201 238 229 266 245 262 314 332 338 307 290 281 268 251 237 230 228 226 227 241 254 281 308 319 323 322 318 315 312 310 310 311 313 315
301 282 308 296 284 252 264 237 213 214 225 241 266 276 295 327 338 343 323 333 323 314 295 261 243 234 228 226 227 235 252 282 304 315 320 318 314 311 308 306 307 308 310 310
181 261 331 278 275 259 257 254 250 242 247 258 271 281 329 15 334 331 349 351 350 344 327 288 250 241 235 232 231 237 266 287 305 313 316 312 308 306 304 303 303 303 305 308
230 253 276 263 334 306 270 252 237 231 242 255 256 275 2 1 17 40 33 21 15 6 1 347 286 252 245 244 245 256 269 285 299 304 307 306 304 304 304 304 302 302 303 303
225 232 282 289 299 249 74 1 310 220 238 276 254 302 4 355 112 90 43 17 1 356 354 352 332 282 263 259 261 271 281 291 294 297 300 300 298 297 298 299 300 303 303 303
222 225 252 254 249 296 275 155 135 207 207 230 162 90 11 345 246 199 18 354 343 338 334 330 321 298 277 270 273 276 284 289 289 294 295 292 293 297 299 297 298 300 300 300
215 247 244 174 260 265 96 133 81 198 256 138 124 54 12 352 302 327 341 337 336 335 334 324 311 296 293 292 280 288 291 286 286 284 279 284 292 294 295 296 295 297 297 297
175 210 223 235 254 273 102 134 88 233 58 135 58 2 343 322 304 307 318 323 328 331 332 326 317 308 302 292 295 295 294 296 290 283 288 294 296 296 294 293 293 296 296 296
204 208 205 222 245 262 93 139 227 85 91 57 330 308 296 302 311 318 321 321 322 320 318 313 307 305 302 299 297 297 293 295 292 290 293 297 298 298 295 297 300 299 299 298
244 226 300 221 255 98 63 100 103 99 356 296 283 307 314 318 318 316 315 315 314 314 312 311 306 303 300 295 289 288 295 294 293 296 302 301 298 297 297 294 295 297 299 294
256 242 246 272 162 186 135 123 154 308 274 298 310 312 309 308 314 317 318 318 317 315 313 311 307 302 299 295 290 286 290 293 292 289 294 291 285 284 285 287 286 283 280 282
290 170 243 268 70 105 229 247 259 247 246 270 284 291 301 309 312 313 311 310 307 305 304 304 302 298 293 291 287 289 289 291 291 293 295 285 281 283 286 285 286 286 291 287
213 238 253 262 150 208 288 213 225 232 243 259 266 279 288 298 303 309 307 305 303 302 300 301 301 298 293 292 289 287 288 288 285 284 283 285 287 285 284 282 286 296 296 297